 day,  time,  air_temp(C),  RH(%),  ground_temp10cm(C),  ground_temp20cm(C),  ground_temp40cm(C),  precipitation(mm/h),  Solar_Radiation(MJ/m2h),  lack, 
 08/02/01, 01:00,  -8.5,  90,   0.3,   0.9,   2.2,   0.0,  0.00, 
 08/02/01, 02:00,  -8.5,  90,   0.3,   0.9,   2.1,   0.0,  0.00, 
 08/02/01, 03:00,  -8.4,  89,   0.3,   0.9,   2.1,   0.0,  0.00, 
 08/02/01, 04:00,  -8.6,  93,   0.3,   0.9,   2.1,   0.5,  0.00, 
 08/02/01, 05:00,  -9.2,  88,   0.3,   0.9,   2.1,   0.0,  0.00, 
 08/02/01, 06:00,  -9.2,  90,   0.3,   0.9,   2.1,   0.0,  0.00, 
 08/02/01, 07:00,  -9.5,  89,   0.3,   0.9,   2.1,   0.5,  0.00, 
 08/02/01, 08:00,  -9.1,  89,   0.3,   0.9,   2.0,   0.0,  0.08, 
 08/02/01, 09:00,  -9.1,  91,   0.3,   0.9,   2.1,   0.0,  0.27, 
 08/02/01, 10:00,  -7.2,  81,   0.3,   0.9,   2.1,   0.0,  0.73, 
 08/02/01, 11:00,  -7.2,  75,   0.3,   0.9,   2.1,   0.0,  0.78, 
 08/02/01, 12:00,  -6.7,  66,   0.3,   0.9,   2.1,   0.0,  1.54, 
 08/02/01, 13:00,  -7.5,  67,   0.3,   0.9,   2.1,   0.5,  1.71, 
 08/02/01, 14:00,  -6.8,  67,   0.3,   0.9,   2.1,   0.0,  1.81, 
 08/02/01, 15:00,  -6.8,  72,   0.3,   0.9,   2.2,   0.0,  1.59, 
 08/02/01, 16:00,  -7.7,  72,   0.3,   0.9,   2.1,   0.0,  1.29, 
 08/02/01, 17:00,  -8.5,  75,   0.3,   0.9,   2.1,   0.0,  0.25, 
 08/02/01, 18:00,  -9.0,  80,   0.3,   0.9,   2.1,   0.0,  0.03, 
 08/02/01, 19:00, -10.2,  87,   0.3,   0.9,   2.1,   0.0,  0.00, 
 08/02/01, 20:00, -11.8,  89,   0.3,   0.9,   2.1,   0.0,  0.00, 
 08/02/01, 21:00, -10.6,  88,   0.3,   0.9,   2.1,   0.0,  0.00, 
 08/02/01, 22:00, -11.5,  89,   0.3,   0.9,   2.1,   0.0,  0.00, 
 08/02/01, 23:00, -10.2,  81,   0.3,   0.9,   2.1,   0.0,  0.00, 
 08/02/02, 00:00, -12.5,  86,   0.3,   0.9,   2.1,   0.0,  0.00, 
 08/02/02, 01:00, -11.3,  81,   0.3,   0.9,   2.1,   0.0,  0.00, 
 08/02/02, 02:00, -10.0,  68,   0.3,   0.9,   2.1,   0.0,  0.00, 
 08/02/02, 03:00, -10.3,  73,   0.3,   0.9,   2.0,   0.0,  0.00, 
 08/02/02, 04:00,  -9.7,  67,   0.3,   0.9,   2.0,   0.0,  0.00, 
 08/02/02, 05:00,  -9.4,  66,   0.3,   0.9,   2.1,   0.0,  0.00, 
 08/02/02, 06:00, -10.1,  72,   0.3,   0.9,   2.0,   0.0,  0.00, 
 08/02/02, 07:00, -10.9,  75,   0.3,   0.9,   2.0,   0.0,  0.00, 
 08/02/02, 08:00,  -9.9,  74,   0.3,   0.9,   2.1,   0.0,  0.12, 
 08/02/02, 09:00,  -7.5,  64,   0.3,   0.9,   2.1,   0.0,  0.47, 
 08/02/02, 10:00,  -6.1,  63,   0.3,   0.9,   2.0,   0.0,  0.80, 
 08/02/02, 11:00,  -3.6,  57,   0.3,   0.9,   2.0,   0.0,  1.16, 
 08/02/02, 12:00,  -3.5,  61,   0.3,   0.9,   2.1,   0.0,  1.16, 
 08/02/02, 13:00,  -4.1,  58,   0.3,   0.9,   2.1,   0.0,  1.11, 
 08/02/02, 14:00,  -3.1,  56,   0.3,   0.9,   2.1,   0.0,  0.90, 
 08/02/02, 15:00,  -3.8,  65,   0.3,   0.9,   2.1,   0.0,  0.76, 
 08/02/02, 16:00,  -3.7,  59,   0.3,   0.9,   2.1,   0.0,  0.50, 
 08/02/02, 17:00,  -3.7,  59,   0.3,   0.9,   2.1,   0.0,  0.17, 
 08/02/02, 18:00,  -3.9,  62,   0.3,   0.9,   2.1,   0.0,  0.00, 
 08/02/02, 19:00,  -4.6,  72,   0.3,   0.9,   2.1,   0.0,  0.00, 
 08/02/02, 20:00,  -5.0,  78,   0.3,   0.9,   2.0,   0.0,  0.00, 
 08/02/02, 21:00,  -5.5,  89,   0.3,   0.9,   2.1,   0.0,  0.00, 
 08/02/02, 22:00,  -5.7,  93,   0.3,   0.9,   2.0,   0.0,  0.00, 
 08/02/02, 23:00,  -5.7,  95,   0.3,   0.9,   2.1,   0.5,  0.00, 
 08/02/03, 00:00,  -5.6,  94,   0.3,   0.9,   2.1,   0.5,  0.00, 
 08/02/03, 01:00,  -5.6,  95,   0.3,   0.9,   2.0,   0.5,  0.00, 
 08/02/03, 02:00,  -5.1,  95,   0.3,   0.9,   2.0,   0.0,  0.00, 
 08/02/03, 03:00,  -5.4,  95,   0.3,   0.9,   2.0,   0.0,  0.00, 
 08/02/03, 04:00,  -4.9,  94,   0.3,   0.9,   2.0,   0.0,  0.00, 
 08/02/03, 05:00,  -4.5,  97,   0.3,   0.9,   2.0,   1.5,  0.00, 
 08/02/03, 06:00,  -2.5,  99,   0.3,   0.9,   2.1,   0.0,  0.00, 
 08/02/03, 07:00,  -2.9,  99,   0.3,   0.9,   2.1,   0.5,  0.00, 
 08/02/03, 08:00,  -2.6,  97,   0.3,   0.9,   2.0,   0.5,  0.02, 
 08/02/03, 09:00,  -3.7,  95,   0.3,   0.9,   2.1,   0.5,  0.18, 
 08/02/03, 10:00,  -3.9,  95,   0.3,   0.9,   2.1,   0.0,  0.22, 
 08/02/03, 11:00,  -4.8,  98,   0.3,   0.9,   2.1,   0.0,  0.23, 
 08/02/03, 12:00,  -2.3,  91,   0.3,   0.9,   2.1,   0.5,  0.35, 
 08/02/03, 13:00,  -2.8,  97,   0.3,   0.9,   2.1,   0.0,  0.31, 
 08/02/03, 14:00,  -3.2,  98,   0.3,   0.9,   2.1,   1.0,  0.22, 
 08/02/03, 15:00,  -3.6,  97,   0.3,   0.9,   2.1,   1.0,  0.12, 
 08/02/03, 16:00,  -4.2,  97,   0.3,   0.9,   2.1,   1.0,  0.09, 
 08/02/03, 17:00,  -4.5,  97,   0.3,   0.9,   2.1,   1.5,  0.03, 
 08/02/03, 18:00,  -5.4,  96,   0.3,   0.9,   2.1,   2.0,  0.00, 
 08/02/03, 19:00,  -6.2,  94,   0.3,   0.9,   2.1,   1.5,  0.00, 
 08/02/03, 20:00,  -6.2,  96,   0.3,   0.9,   2.0,   0.5,  0.00, 
 08/02/03, 21:00,  -6.9,  93,   0.3,   0.9,   2.1,   0.0,  0.00, 
 08/02/03, 22:00,  -7.9,  96,   0.3,   0.9,   2.1,   0.0,  0.00, 
 08/02/03, 23:00,  -7.4,  95,   0.3,   0.9,   2.1,   0.0,  0.00, 
 08/02/04, 00:00,  -7.1,  96,   0.3,   0.9,   2.0,   0.0,  0.00, 
 08/02/04, 01:00,  -8.7,  95,   0.3,   0.9,   2.1,   0.0,  0.00, 
 08/02/04, 02:00, -10.0,  89,   0.3,   0.9,   2.1,   0.0,  0.00, 
 08/02/04, 03:00, -10.2,  91,   0.3,   0.8,   2.0,   0.0,  0.00, 
 08/02/04, 04:00,  -8.2,  92,   0.3,   0.9,   2.0,   0.0,  0.00, 
 08/02/04, 05:00, -10.5,  90,   0.3,   0.9,   2.0,   0.0,  0.00, 
 08/02/04, 06:00,  -9.4,  83,   0.3,   0.9,   2.0,   0.0,  0.00, 
 08/02/04, 07:00,  -9.5,  90,   0.3,   0.9,   2.0,   0.0,  0.00, 
 08/02/04, 08:00,  -7.2,  89,   0.3,   0.8,   2.0,   0.0,  0.06, 
 08/02/04, 09:00,  -6.6,  92,   0.3,   0.9,   2.1,   0.0,  0.35, 
 08/02/04, 10:00,  -4.6,  80,   0.3,   0.9,   2.1,   0.5,  0.66, 
 08/02/04, 11:00,  -3.1,  78,   0.3,   0.9,   2.1,   1.0,  0.94, 
 08/02/04, 12:00,  -3.8,  89,   0.3,   0.9,   2.0,   0.0,  1.17, 
 08/02/04, 13:00,  -3.4,  93,   0.3,   0.9,   2.1,   0.5,  0.97, 
 08/02/04, 14:00,  -2.7,  82,   0.3,   0.9,   2.1,   0.5,  1.26, 
 08/02/04, 15:00,  -3.7,  97,   0.3,   0.9,   2.1,   0.0,  0.35, 
 08/02/04, 16:00,  -3.5,  94,   0.3,   0.9,   2.1,   0.5,  0.47, 
 08/02/04, 17:00,  -4.5,  91,   0.3,   0.9,   2.1,   0.0,  0.15, 
 08/02/04, 18:00,  -5.3,  95,   0.3,   0.9,   2.1,   0.0,  0.00, 
 08/02/04, 19:00,  -5.5,  96,   0.3,   0.9,   2.1,   0.0,  0.00, 
 08/02/04, 20:00,  -6.7,  90,   0.3,   0.9,   2.1,   0.0,  0.00, 
 08/02/04, 21:00,  -6.9,  87,   0.3,   0.9,   2.1,   0.5,  0.00, 
 08/02/04, 22:00,  -6.4,  73,   0.3,   0.9,   2.0,   0.0,  0.00, 
 08/02/04, 23:00,  -9.2,  91,   0.3,   0.9,   2.1,   0.0,  0.00, 
 08/02/05, 00:00,  -8.4,  83,   0.3,   0.9,   2.1,   0.0,  0.00, 
 08/02/05, 01:00,  -9.0,  90,   0.3,   0.9,   2.0,   0.0,  0.00, 
 08/02/05, 02:00,  -8.7,  89,   0.3,   0.9,   2.1,   0.0,  0.00, 
 08/02/05, 03:00,  -7.9,  83,   0.3,   0.9,   2.1,   0.0,  0.00, 
 08/02/05, 04:00,  -7.4,  82,   0.3,   0.9,   2.1,   0.0,  0.00, 
 08/02/05, 05:00,  -7.8,  92,   0.3,   0.9,   2.1,   0.0,  0.00, 
 08/02/05, 06:00,  -7.7,  91,   0.3,   0.9,   2.0,   0.5,  0.00, 
 08/02/05, 07:00,  -7.5,  91,   0.3,   0.9,   2.1,   0.0,  0.00, 
 08/02/05, 08:00,  -7.1,  91,   0.3,   0.9,   2.0,   0.0,  0.04, 
 08/02/05, 09:00,  -6.2,  91,   0.3,   0.9,   2.0,   0.5,  0.26, 
 08/02/05, 10:00,  -6.1,  93,   0.3,   0.9,   2.1,   0.0,  0.35, 
 08/02/05, 11:00,  -4.6,  89,   0.3,   0.9,   2.1,   0.0,  0.56, 
 08/02/05, 12:00,  -4.6,  88,   0.3,   0.9,   2.1,   0.0,  0.74, 
 08/02/05, 13:00,  -4.2,  82,   0.4,   0.9,   2.1,   0.5,  0.76, 
 08/02/05, 14:00,  -5.2,  93,   0.3,   0.9,   2.1,   0.0,  0.65, 
 08/02/05, 15:00,  -4.7,  87,   0.3,   0.9,   2.1,   0.5,  0.78, 
 08/02/05, 16:00,  -5.6,  91,   0.3,   0.9,   2.1,   0.0,  0.41, 
 08/02/05, 17:00,  -6.3,  93,   0.3,   0.9,   2.1,   0.0,  0.18, 
 08/02/05, 18:00,  -6.9,  94,   0.3,   0.9,   2.1,   0.0,  0.00, 
 08/02/05, 19:00,  -7.8,  89,   0.3,   0.9,   2.1,   0.0,  0.00, 
 08/02/05, 20:00,  -7.9,  90,   0.3,   0.9,   2.1,   0.0,  0.00, 
 08/02/05, 21:00,  -8.4,  87,   0.3,   0.9,   2.1,   0.0,  0.00, 
 08/02/05, 22:00,  -8.7,  87,   0.3,   0.9,   2.1,   0.0,  0.00, 
 08/02/05, 23:00,  -7.6,  73,   0.3,   0.8,   2.0,   0.0,  0.00, 
 08/02/06, 00:00,  -8.4,  79,   0.3,   0.9,   2.0,   0.0,  0.00, 
 08/02/06, 01:00,  -8.0,  74,   0.3,   0.9,   2.1,   0.0,  0.00, 
 08/02/06, 02:00,  -8.1,  74,   0.3,   0.8,   2.0,   0.0,  0.00, 
 08/02/06, 03:00,  -8.7,  81,   0.3,   0.9,   2.1,   0.0,  0.00, 
 08/02/06, 04:00,  -8.6,  79,   0.3,   0.9,   2.0,   0.0,  0.00, 
 08/02/06, 05:00,  -8.0,  73,   0.3,   0.9,   2.1,   0.0,  0.00, 
 08/02/06, 06:00,  -6.6,  61,   0.3,   0.9,   2.1,   0.0,  0.00, 
 08/02/06, 07:00,  -6.7,  63,   0.3,   0.9,   2.1,   0.0,  0.00, 
 08/02/06, 08:00,  -7.8,  76,   0.3,   0.9,   2.1,   0.0,  0.16, 
 08/02/06, 09:00,  -6.3,  69,   0.3,   0.9,   2.1,   0.0,  0.49, 
 08/02/06, 10:00,  -4.6,  71,   0.3,   0.9,   2.1,   0.0,  1.17, 
 08/02/06, 11:00,  -3.2,  67,   0.4,   0.9,   2.1,   0.0,  1.62, 
 08/02/06, 12:00,  -2.9,  74,   0.5,   0.9,   2.1,   0.0,  1.66, 
 08/02/06, 13:00,  -2.5,  67,   0.5,   0.9,   2.1,   0.0,  2.10, 
 08/02/06, 14:00,  -1.8,  70,   0.5,   0.9,   2.1,   0.0,  1.63, 
 08/02/06, 15:00,  -1.1,  64,   0.5,   0.9,   2.1,   0.0,  1.49, 
 08/02/06, 16:00,  -2.7,  70,   0.5,   1.0,   2.2,   0.0,  0.80, 
 08/02/06, 17:00,  -3.9,  73,   0.5,   1.0,   2.2,   0.0,  0.29, 
 08/02/06, 18:00,  -5.2,  81,   0.5,   0.9,   2.2,   0.0,  0.02, 
 08/02/06, 19:00,  -5.4,  82,   0.5,   0.9,   2.1,   0.0,  0.00, 
 08/02/06, 20:00,  -5.2,  85,   0.5,   1.0,   2.1,   0.0,  0.00, 
 08/02/06, 21:00,  -5.6,  94,   0.5,   0.9,   2.0,   0.0,  0.00, 
 08/02/06, 22:00,  -5.6,  95,   0.5,   1.0,   2.2,   1.0,  0.00, 
 08/02/06, 23:00,  -6.1,  96,   0.5,   0.9,   2.2,   0.0,  0.00, 
 08/02/07, 00:00,  -6.7,  95,   0.5,   0.9,   2.1,   0.0,  0.00, 
 08/02/07, 01:00,  -6.9,  95,   0.6,   1.0,   2.2,   0.5,  0.00, 
 08/02/07, 02:00,  -7.0,  93,   0.5,   0.9,   2.2,   0.0,  0.00, 
 08/02/07, 03:00,  -7.4,  91,   0.6,   1.0,   2.2,   0.0,  0.00, 
 08/02/07, 04:00,  -7.5,  93,   0.6,   1.0,   2.2,   0.5,  0.00, 
 08/02/07, 05:00,  -8.2,  88,   0.5,   0.9,   2.2,   0.5,  0.00, 
 08/02/07, 06:00,  -8.5,  90,   0.5,   0.9,   2.2,   0.0,  0.00, 
 08/02/07, 07:00,  -9.0,  81,   0.5,   0.9,   2.2,   0.0,  0.00, 
 08/02/07, 08:00,  -8.8,  86,   0.5,   0.9,   2.2,   0.0,  0.15, 
 08/02/07, 09:00,  -7.7,  80,   0.6,   1.0,   2.2,   0.0,  0.98, 
 08/02/07, 10:00,  -6.5,  74,   0.6,   1.0,   2.2,   0.0,  1.90, 
 08/02/07, 11:00,  -5.6,  75,   0.6,   1.0,   2.2,   0.0,  2.31, 
 08/02/07, 12:00,  -4.7,  66,   0.6,   1.0,   2.2,   0.0,  2.27, 
 08/02/07, 13:00,  -5.0,  64,   0.6,   1.0,   2.2,   0.0,  2.14, 
 08/02/07, 14:00,  -5.4,  64,   0.6,   1.0,   2.2,   0.0,  1.84, 
 08/02/07, 15:00,  -5.1,  64,   0.6,   1.0,   2.2,   0.0,  1.78, 
 08/02/07, 16:00,  -6.3,  70,   0.5,   1.0,   2.2,   0.0,  1.04, 
 08/02/07, 17:00,  -6.6,  69,   0.5,   1.0,   2.2,   0.0,  0.35, 
 08/02/07, 18:00,  -8.3,  84,   0.5,   1.0,   2.2,   0.0,  0.03, 
 08/02/07, 19:00,  -8.9,  83,   0.5,   1.0,   2.1,   0.0,  0.00, 
 08/02/07, 20:00,  -9.4,  85,   0.5,   0.9,   2.1,   0.0,  0.00, 
 08/02/07, 21:00,  -8.8,  84,   0.5,   0.9,   2.1,   0.0,  0.00, 
 08/02/07, 22:00,  -9.0,  86,   0.5,   1.0,   2.2,   0.0,  0.00, 
 08/02/07, 23:00,  -9.0,  84,   0.5,   1.0,   2.2,   0.0,  0.00, 
 08/02/08, 00:00,  -9.4,  74,   0.5,   1.0,   2.2,   0.0,  0.00, 
 08/02/08, 01:00, -10.4,  77,   0.5,   1.0,   2.2,   0.0,  0.00, 
 08/02/08, 02:00, -12.0,  83,   0.5,   0.9,   2.1,   0.0,  0.00, 
 08/02/08, 03:00, -11.1,  85,   0.5,   1.0,   2.2,   0.0,  0.00, 
 08/02/08, 04:00, -12.3,  85,   0.5,   0.9,   2.1,   0.0,  0.00, 
 08/02/08, 05:00, -11.8,  84,   0.5,   0.9,   2.1,   0.0,  0.00, 
 08/02/08, 06:00, -11.5,  79,   0.5,   0.9,   2.1,   0.5,  0.00, 
 08/02/08, 07:00, -11.9,  84,   0.5,   0.9,   2.1,   0.0,  0.00, 
 08/02/08, 08:00, -10.3,  83,   0.5,   0.9,   2.1,   0.0,  0.24, 
 08/02/08, 09:00,  -8.6,  74,   0.5,   0.9,   2.1,   0.0,  1.17, 
 08/02/08, 10:00,  -7.3,  80,   0.5,   0.9,   2.1,   0.0,  2.06, 
 08/02/08, 11:00,  -6.8,  79,   0.5,   0.9,   2.1,   0.0,  1.96, 
 08/02/08, 12:00,  -6.1,  75,   0.5,   0.9,   2.1,   0.0,  1.61, 
 08/02/08, 13:00,  -6.5,  73,   0.5,   0.9,   2.1,   0.0,  1.36, 
 08/02/08, 14:00,  -6.1,  77,   0.5,   0.9,   2.1,   0.0,  1.33, 
 08/02/08, 15:00,  -6.8,  74,   0.5,   0.9,   2.1,   0.0,  1.52, 
 08/02/08, 16:00,  -6.6,  61,   0.5,   0.9,   2.1,   0.0,  1.22, 
 08/02/08, 17:00,  -7.3,  74,   0.5,   0.9,   2.1,   0.0,  0.44, 
 08/02/08, 18:00,  -8.4,  70,   0.5,   0.9,   2.1,   0.0,  0.03, 
 08/02/08, 19:00,  -9.9,  78,   0.5,   0.9,   2.1,   0.0,  0.00, 
 08/02/08, 20:00, -11.9,  88,   0.5,   0.9,   2.1,   0.0,  0.00, 
 08/02/08, 21:00, -12.1,  88,   0.5,   0.9,   2.1,   0.0,  0.00, 
 08/02/08, 22:00, -12.4,  84,   0.5,   0.9,   2.1,   0.0,  0.00, 
 08/02/08, 23:00, -12.7,  84,   0.5,   0.9,   2.1,   0.0,  0.00, 
 08/02/09, 00:00, -12.4,  82,   0.5,   0.9,   2.1,   0.0,  0.00, 
 08/02/09, 01:00, -10.0,  59,   0.5,   0.9,   2.1,   0.0,  0.00, 
 08/02/09, 02:00, -10.2,  60,   0.4,   0.9,   2.1,   0.0,  0.00, 
 08/02/09, 03:00,  -8.3,  39,   0.4,   0.9,   2.1,   0.0,  0.00, 
 08/02/09, 04:00, -10.8,  55,   0.5,   0.9,   2.1,   0.0,  0.00, 
 08/02/09, 05:00,  -7.3,  54,   0.4,   0.9,   2.1,   0.0,  0.00, 
 08/02/09, 06:00,  -9.0,  66,   0.4,   0.9,   2.1,   0.0,  0.00, 
 08/02/09, 07:00,  -8.9,  65,   0.4,   0.9,   2.1,   0.0,  0.00, 
 08/02/09, 08:00,  -5.8,  43,   0.4,   0.9,   2.1,   0.0,  0.18, 
 08/02/09, 09:00,  -3.9,  45,   0.4,   0.9,   2.1,   0.0,  0.61, 
 08/02/09, 10:00,  -2.7,  58,   0.4,   0.9,   2.1,   0.0,  0.83, 
 08/02/09, 11:00,  -2.4,  68,   0.4,   0.9,   2.1,   0.0,  1.18, 
 08/02/09, 12:00,  -2.8,  82,   0.5,   0.9,   2.1,   0.0,  0.98, 
 08/02/09, 13:00,  -4.6,  94,   0.4,   0.9,   2.1,   0.0,  0.59, 
 08/02/09, 14:00,  -5.2,  94,   0.4,   0.9,   2.1,   0.5,  0.47, 
 08/02/09, 15:00,  -4.3,  94,   0.4,   0.9,   2.1,   1.5,  0.34, 
 08/02/09, 16:00,  -3.5,  93,   0.4,   0.9,   2.1,   1.0,  0.17, 
 08/02/09, 17:00,  -3.7,  97,   0.4,   0.9,   2.1,   2.0,  0.06, 
 08/02/09, 18:00,  -3.9,  96,   0.4,   0.9,   2.1,   1.5,  0.00, 
 08/02/09, 19:00,  -3.9,  96,   0.4,   0.9,   2.1,   2.0,  0.00, 
 08/02/09, 20:00,  -4.0,  97,   0.4,   0.9,   2.1,   1.0,  0.00, 
 08/02/09, 21:00,  -4.6,  98,   0.4,   0.9,   2.1,   1.0,  0.00, 
 08/02/09, 22:00,  -5.2,  95,   0.4,   0.9,   2.1,   2.0,  0.00, 
 08/02/09, 23:00,  -5.2,  95,   0.4,   0.9,   2.1,   2.0,  0.00, 
 08/02/10, 00:00,  -6.0,  95,   0.4,   0.9,   2.1,   3.0,  0.00, 
 08/02/10, 01:00,  -6.6,  92,   0.4,   0.9,   2.1,   0.0,  0.00, 
 08/02/10, 02:00,  -7.8,  94,   0.4,   0.9,   2.1,   0.0,  0.00, 
 08/02/10, 03:00,  -7.0,  92,   0.4,   0.9,   2.1,   0.0,  0.00, 
 08/02/10, 04:00,  -7.2,  91,   0.4,   0.9,   2.1,   0.0,  0.00, 
 08/02/10, 05:00,  -7.1,  80,   0.4,   0.9,   2.1,   0.0,  0.00, 
 08/02/10, 06:00,  -8.9,  88,   0.4,   0.9,   2.1,   0.0,  0.00, 
 08/02/10, 07:00,  -7.4,  81,   0.4,   0.9,   2.1,   0.0,  0.00, 
 08/02/10, 08:00,  -8.2,  87,   0.4,   0.9,   2.1,   0.0,  0.06, 
 08/02/10, 09:00,  -6.0,  81,   0.4,   0.9,   2.1,   0.0,  0.32, 
 08/02/10, 10:00,  -4.9,  88,   0.4,   0.9,   2.1,   0.5,  0.47, 
 08/02/10, 11:00,  -4.9,  96,   0.4,   0.9,   2.1,   0.0,  0.48, 
 08/02/10, 12:00,  -3.3,  89,   0.4,   0.9,   2.1,   0.0,  0.78, 
 08/02/10, 13:00,  -3.1,  90,   0.4,   0.9,   2.1,   0.0,  0.76, 
 08/02/10, 14:00,  -2.9,  90,   0.4,   0.9,   2.1,   0.0,  0.38, 
 08/02/10, 15:00,  -3.1,  92,   0.4,   0.9,   2.1,   0.0,  0.27, 
 08/02/10, 16:00,  -2.6,  87,   0.4,   0.9,   2.1,   0.0,  0.52, 
 08/02/10, 17:00,  -3.5,  87,   0.4,   0.9,   2.1,   0.0,  0.26, 
 08/02/10, 18:00,  -4.3,  94,   0.4,   0.9,   2.1,   0.0,  0.00, 
 08/02/10, 19:00,  -5.2,  95,   0.4,   0.9,   2.1,   0.0,  0.00, 
 08/02/10, 20:00,  -5.3,  96,   0.4,   0.9,   2.1,   0.0,  0.00, 
 08/02/10, 21:00,  -5.4,  95,   0.4,   0.9,   2.1,   0.0,  0.00, 
 08/02/10, 22:00,  -6.2,  93,   0.4,   0.9,   2.1,   0.0,  0.00, 
 08/02/10, 23:00,  -7.2,  92,   0.4,   0.9,   2.0,   0.0,  0.00, 
 08/02/11, 00:00,  -6.2,  93,   0.4,   0.9,   2.0,   0.0,  0.00, 
 08/02/11, 01:00,  -7.7,  90,   0.4,   0.9,   2.1,   0.0,  0.00, 
 08/02/11, 02:00,  -7.7,  89,   0.4,   0.9,   2.1,   0.0,  0.00, 
 08/02/11, 03:00,  -7.1,  83,   0.4,   0.9,   2.1,   0.0,  0.00, 
 08/02/11, 04:00,  -9.1,  91,   0.4,   0.9,   2.1,   0.0,  0.00, 
 08/02/11, 05:00,  -6.7,  70,   0.4,   0.9,   2.1,   0.0,  0.00, 
 08/02/11, 06:00,  -5.9,  70,   0.4,   0.9,   2.0,   0.0,  0.00, 
 08/02/11, 07:00,  -4.2,  81,   0.4,   0.9,   2.1,   0.0,  0.00, 
 08/02/11, 08:00,  -3.4,  80,   0.4,   0.9,   2.1,   0.0,  0.06, 
 08/02/11, 09:00,  -2.3,  73,   0.4,   0.9,   2.1,   0.0,  0.30, 
 08/02/11, 10:00,  -1.3,  70,   0.4,   0.9,   2.1,   0.0,  0.71, 
 08/02/11, 11:00,   0.8,  62,   0.4,   0.9,   2.1,   0.0,  0.86, 
 08/02/11, 12:00,   0.8,  67,   0.4,   0.9,   2.1,   0.0,  1.97, 
 08/02/11, 13:00,   0.8,  74,   0.4,   0.9,   2.1,   0.0,  2.23, 
 08/02/11, 14:00,   1.1,  67,   0.4,   0.9,   2.1,   0.0,  1.34, 
 08/02/11, 15:00,   1.1,  63,   0.4,   0.9,   2.1,   0.0,  1.19, 
 08/02/11, 16:00,   0.5,  63,   0.4,   0.9,   2.1,   0.0,  1.31, 
 08/02/11, 17:00,   0.3,  64,   0.4,   0.9,   2.1,   0.0,  0.41, 
 08/02/11, 18:00,  -1.2,  74,   0.4,   0.9,   2.1,   0.0,  0.05, 
 08/02/11, 19:00,  -1.4,  70,   0.4,   0.9,   2.1,   0.0,  0.00, 
 08/02/11, 20:00,  -1.3,  49,   0.4,   0.9,   2.1,   0.0,  0.00, 
 08/02/11, 21:00,  -0.7,  45,   0.4,   0.9,   2.1,   0.0,  0.00, 
 08/02/11, 22:00,  -0.7,  60,   0.4,   0.9,   2.1,   0.0,  0.00, 
 08/02/11, 23:00,  -1.1,  65,   0.4,   0.9,   2.1,   0.0,  0.00, 
 08/02/12, 00:00,  -2.4,  76,   0.4,   0.9,   2.1,   0.0,  0.00, 
 08/02/12, 01:00,  -3.2,  88,   0.4,   0.9,   2.0,   0.0,  0.00, 
 08/02/12, 02:00,  -2.4,  91,   0.4,   0.9,   2.0,   0.0,  0.00, 
 08/02/12, 03:00,  -2.2,  96,   0.4,   0.9,   2.0,   0.0,  0.00, 
 08/02/12, 04:00,  -1.9,  99,   0.4,   0.9,   2.0,   1.0,  0.00, 
 08/02/12, 05:00,  -2.1,  98,   0.4,   0.9,   2.0,   1.0,  0.00, 
 08/02/12, 06:00,  -2.3,  98,   0.4,   0.9,   2.0,   1.0,  0.00, 
 08/02/12, 07:00,  -2.6,  98,   0.4,   0.9,   2.0,   1.5,  0.00, 
 08/02/12, 08:00,  -2.6,  96,   0.4,   0.9,   2.0,   0.5,  0.03, 
 08/02/12, 09:00,  -2.5,  95,   0.4,   0.9,   2.0,   0.5,  0.12, 
 08/02/12, 10:00,  -2.1,  96,   0.4,   0.9,   2.0,   0.5,  0.19, 
 08/02/12, 11:00,  -2.5,  99,   0.4,   0.9,   2.0,   2.0,  0.28, 
 08/02/12, 12:00,  -2.2,  99,   0.5,   0.9,   2.0,   1.5,  0.19, 
 08/02/12, 13:00,  -2.5,  99,   0.5,   0.9,   2.0,   1.5,  0.20, 
 08/02/12, 14:00,  -3.6,  99,   0.5,   0.9,   2.1,   2.5,  0.25, 
 08/02/12, 15:00,  -3.7,  99,   0.5,   0.9,   2.0,   2.5,  0.24, 
 08/02/12, 16:00,  -3.7,  99,   0.5,   0.9,   2.0,   0.0,  0.45, 
 08/02/12, 17:00,  -4.4,  96,   0.5,   0.9,   2.0,   0.0,  0.19, 
 08/02/12, 18:00,  -5.3,  94,   0.5,   0.9,   2.0,   0.0,  0.03, 
 08/02/12, 19:00,  -6.1,  90,   0.5,   0.9,   2.0,   0.0,  0.00, 
 08/02/12, 20:00,  -7.0,  93,   0.5,   0.9,   2.0,   0.5,  0.00, 
 08/02/12, 21:00,  -7.2,  96,   0.5,   0.9,   2.0,   0.5,  0.00, 
 08/02/12, 22:00,  -8.4,  99,   0.5,   0.9,   2.0,   1.5,  0.00, 
 08/02/12, 23:00, -10.2,  92,   0.5,   0.9,   2.0,   1.0,  0.00, 
 08/02/13, 00:00, -10.5,  90,   0.5,   0.9,   2.0,   0.0,  0.00, 
 08/02/13, 01:00, -11.0,  88,   0.4,   0.9,   2.0,   0.0,  0.00, 
 08/02/13, 02:00, -11.6,  89,   0.5,   0.9,   2.0,   0.5,  0.00, 
 08/02/13, 03:00, -12.2,  87,   0.4,   0.9,   2.0,   0.0,  0.00, 
 08/02/13, 04:00, -12.3,  89,   0.4,   0.9,   2.0,   0.0,  0.00, 
 08/02/13, 05:00, -12.7,  90,   0.4,   0.9,   2.0,   0.0,  0.00, 
 08/02/13, 06:00, -12.7,  89,   0.4,   0.9,   2.0,   0.5,  0.00, 
 08/02/13, 07:00, -13.2,  88,   0.4,   0.9,   2.0,   0.0,  0.00, 
 08/02/13, 08:00, -13.3,  92,   0.4,   0.9,   2.0,   0.0,  0.10, 
 08/02/13, 09:00, -12.5,  93,   0.4,   0.9,   2.0,   0.5,  0.40, 
 08/02/13, 10:00, -12.0,  96,   0.4,   0.9,   2.0,   0.0,  0.84, 
 08/02/13, 11:00, -10.7,  99,   0.4,   0.9,   2.0,   0.0,  1.27, 
 08/02/13, 12:00, -10.9,  92,   0.4,   0.9,   2.0,   0.0,  1.86, 
 08/02/13, 13:00, -10.7,  93,   0.4,   0.9,   2.0,   0.0,  1.44, 
 08/02/13, 14:00, -10.3,  93,   0.4,   0.9,   2.0,   0.0,  1.70, 
 08/02/13, 15:00, -10.7,  89,   0.4,   0.9,   2.0,   0.0,  1.38, 
 08/02/13, 16:00, -11.0,  79,   0.4,   0.9,   2.0,   0.5,  1.18, 
 08/02/13, 17:00, -11.2,  81,   0.4,   0.9,   2.0,   0.0,  0.41, 
 08/02/13, 18:00, -11.9,  89,   0.4,   0.9,   2.0,   0.0,  0.03, 
 08/02/13, 19:00, -11.8,  85,   0.4,   0.9,   2.0,   0.0,  0.00, 
 08/02/13, 20:00, -11.7,  89,   0.4,   0.9,   2.0,   0.0,  0.00, 
 08/02/13, 21:00, -11.4,  91,   0.4,   0.9,   2.0,   0.0,  0.00, 
 08/02/13, 22:00, -11.1,  90,   0.4,   0.9,   2.0,   0.0,  0.00, 
 08/02/13, 23:00, -10.9,  92,   0.4,   0.9,   2.0,   0.0,  0.00, 
 08/02/14, 00:00, -10.9,  88,   0.4,   0.9,   2.0,   1.0,  0.00, 
 08/02/14, 01:00, -11.1,  89,   0.4,   0.9,   2.0,   0.0,  0.00, 
 08/02/14, 02:00, -11.0,  88,   0.4,   0.9,   2.0,   0.0,  0.00, 
 08/02/14, 03:00, -10.5,  89,   0.4,   0.9,   2.0,   0.0,  0.00, 
 08/02/14, 04:00, -10.3,  90,   0.4,   0.9,   2.0,   0.0,  0.00, 
 08/02/14, 05:00, -10.3,  92,   0.4,   0.9,   2.0,   0.0,  0.00, 
 08/02/14, 06:00, -10.2,  91,   0.4,   0.9,   2.0,   1.0,  0.00, 
 08/02/14, 07:00, -10.2,  89,   0.4,   0.9,   2.0,   0.0,  0.00, 
 08/02/14, 08:00,  -9.6,  91,   0.4,   0.9,   2.0,   0.0,  0.08, 
 08/02/14, 09:00,  -8.9,  94,   0.4,   0.9,   2.0,   0.5,  0.29, 
 08/02/14, 10:00,  -7.3,  99,   0.4,   0.9,   2.0,   0.0,  0.66, 
 08/02/14, 11:00,  -7.3,  98,   0.4,   0.9,   2.0,   0.0,  0.71, 
 08/02/14, 12:00,  -7.1,  99,   0.4,   0.9,   2.0,   0.5,  0.54, 
 08/02/14, 13:00,  -6.1,  99,   0.4,   0.9,   2.0,   0.5,  0.94, 
 08/02/14, 14:00,  -6.3,  99,   0.4,   0.9,   2.0,   0.0,  1.03, 
 08/02/14, 15:00,  -5.8,  91,   0.4,   0.9,   2.0,   0.0,  1.47, 
 08/02/14, 16:00,  -6.6,  90,   0.4,   0.9,   2.0,   0.5,  0.51, 
 08/02/14, 17:00,  -7.2,  90,   0.4,   0.9,   2.0,   0.0,  0.28, 
 08/02/14, 18:00,  -7.5,  87,   0.4,   0.9,   2.0,   0.5,  0.03, 
 08/02/14, 19:00,  -7.8,  89,   0.4,   0.9,   2.0,   0.0,  0.00, 
 08/02/14, 20:00,  -7.9,  95,   0.4,   0.9,   2.0,   0.0,  0.00, 
 08/02/14, 21:00,  -8.1,  90,   0.4,   0.9,   2.0,   0.0,  0.00, 
 08/02/14, 22:00,  -8.2,  89,   0.4,   0.9,   2.0,   0.0,  0.00, 
 08/02/14, 23:00,  -8.5,  92,   0.4,   0.9,   2.0,   0.0,  0.00, 
 08/02/15, 00:00,  -8.8,  92,   0.4,   0.9,   2.0,   0.0,  0.00, 
 08/02/15, 01:00,  -9.1,  93,   0.4,   0.9,   2.0,   0.0,  0.00, 
 08/02/15, 02:00,  -9.2,  94,   0.4,   0.9,   2.0,   0.0,  0.00, 
 08/02/15, 03:00,  -9.5,  95,   0.4,   0.9,   2.0,   0.0,  0.00, 
 08/02/15, 04:00,  -9.4,  91,   0.4,   0.9,   2.0,   0.0,  0.00, 
 08/02/15, 05:00,  -9.5,  93,   0.4,   0.9,   2.0,   0.5,  0.00, 
 08/02/15, 06:00,  -9.7,  94,   0.4,   0.9,   2.0,   0.0,  0.00, 
 08/02/15, 07:00,  -9.2,  93,   0.4,   0.9,   2.0,   0.0,  0.00, 
 08/02/15, 08:00,  -8.8,  94,   0.4,   0.9,   1.9,   0.0,  0.14, 
 08/02/15, 09:00,  -7.7,  99,   0.4,   0.9,   2.0,   0.0,  0.51, 
 08/02/15, 10:00,  -6.6,  99,   0.4,   0.9,   2.0,   0.0,  0.61, 
 08/02/15, 11:00,  -5.7,  99,   0.4,   0.9,   2.0,   1.0,  1.04, 
 08/02/15, 12:00,  -5.9,  99,   0.4,   0.9,   2.0,   0.0,  1.66, 
 08/02/15, 13:00,  -5.3,  99,   0.4,   0.9,   2.0,   0.0,  1.47, 
 08/02/15, 14:00,  -5.4,  94,   0.4,   0.9,   2.0,   0.0,  1.54, 
 08/02/15, 15:00,  -5.2,  95,   0.4,   0.9,   2.0,   0.5,  0.85, 
 08/02/15, 16:00,  -6.1,  91,   0.4,   0.9,   2.0,   0.0,  0.54, 
 08/02/15, 17:00,  -6.5,  94,   0.4,   0.9,   2.0,   0.0,  0.25, 
 08/02/15, 18:00,  -6.7,  89,   0.4,   0.9,   2.0,   1.0,  0.01, 
 08/02/15, 19:00,  -7.1,  92,   0.4,   0.9,   2.0,   0.0,  0.00, 
 08/02/15, 20:00,  -7.1,  95,   0.4,   0.9,   2.0,   0.0,  0.00, 
 08/02/15, 21:00,  -7.5,  95,   0.4,   0.9,   2.0,   0.0,  0.00, 
 08/02/15, 22:00,  -8.0,  96,   0.4,   0.9,   2.0,   0.0,  0.00, 
 08/02/15, 23:00,  -8.9,  93,   0.4,   0.9,   2.0,   0.5,  0.00, 
 08/02/16, 00:00,  -9.4,  91,   0.4,   0.9,   2.0,   0.5,  0.00, 
 08/02/16, 01:00,  -9.6,  93,   0.4,   0.9,   2.0,   0.0,  0.00, 